Weather History for Pascagoula, MS

Change the Weather History Date:

Monday, February 18, 2013

  Actual Average Record
Temperature  
Mean Temperature 50 °F -  
Max Temperature 64 °F 64 °F 78 °F (2000)
Min Temperature 35 °F 48 °F 24 °F (1958)
Degree Days  
Heating Degree Days 16    
Moisture  
Dew Point 44 °F    
Average Humidity 75    
Maximum Humidity 96    
Minimum Humidity 50    
Precipitation  
Precipitation 0.00 in - - ()
Sea Level Pressure  
Sea Level Pressure 30.19 in    
Wind  
Wind Speed 7 mph (SE)    
Max Wind Speed 24 mph    
Max Gust Speed 33 mph    
Visibility 9 miles    
Events Rain    
Averages and records for this station are not official NWS values.
T = Trace of Precipitation, MM = Missing Value Source: NWS Daily Summary

Daily Weather History Graph

Daily Weather History Graph

Search for Another Location

Airport:

Trip Planner

Search our weather history database for the weather conditions in past years. The results will help you decide how hot, cold, wet, or windy it might be!

Date:

Astronomy

Feb. 18, 2013 Rise Set
Actual Time 6:31 AM CST 5:44 PM CST
Civil Twilight 6:07 AM CST 6:09 PM CST
Nautical Twilight 5:38 AM CST 6:37 PM CST
Astronomical Twilight 5:11 AM CST 7:05 PM CST
Moon 11:42 AM CST (2/18) 12:59 AM CST (2/18)
Length of Visible Light 12h 02m
Length of Day
11h 13m
First Quarter, 58% of the Moon is Illuminated
Feb 18
First Quarter
Feb 25
Full
Mar 4
Last Quarter
Mar 11
New
Mar 19
First Quarter

Hourly Weather History & Observations

Time (CST) Temp. Dew Point Humidity Pressure Visibility Wind Dir Wind Speed Gust Speed Precip Events Conditions
12:08 AM 35.6 °F 33.8 °F 93% 30.28 in 4.0 mi Calm Calm - N/A   Clear
12:53 AM 35.1 °F 34.0 °F 96% 30.28 in 4.0 mi Calm Calm - N/A   Clear
1:53 AM 36.0 °F 34.0 °F 93% 30.27 in 8.0 mi Calm Calm - N/A   Clear
2:16 AM 35.6 °F 33.8 °F 93% 30.26 in 2.5 mi Calm Calm - N/A   Clear
2:24 AM 35.6 °F 33.8 °F 93% 30.26 in 10.0 mi Calm Calm - N/A   Clear
2:53 AM 35.1 °F 34.0 °F 96% 30.25 in 7.0 mi Calm Calm - N/A   Clear
3:53 AM 35.1 °F 34.0 °F 96% 30.24 in 10.0 mi Calm Calm - N/A   Clear
4:53 AM 35.1 °F 34.0 °F 96% 30.26 in 10.0 mi Calm Calm - N/A   Clear
5:53 AM 36.0 °F 34.0 °F 93% 30.26 in 10.0 mi Calm Calm - N/A   Clear
6:53 AM 37.0 °F 35.1 °F 93% 30.26 in 10.0 mi Calm Calm - N/A   Clear
7:53 AM 57.0 °F 46.9 °F 69% 30.26 in 10.0 mi SSE 12.7 mph - N/A   Partly Cloudy
8:53 AM 61.0 °F 44.1 °F 54% 30.27 in 10.0 mi SSE 18.4 mph 24.2 mph N/A   Partly Cloudy
9:53 AM 63.0 °F 44.1 °F 50% 30.28 in 10.0 mi SE 19.6 mph 27.6 mph 0.00 in   Clear
10:53 AM 64.0 °F 45.0 °F 50% 30.27 in 10.0 mi SE 23.0 mph 28.8 mph 0.00 in Rain Light Rain
11:53 AM 64.0 °F 45.0 °F 50% 30.26 in 10.0 mi SE 19.6 mph 31.1 mph 0.00 in Rain Light Rain
12:53 PM 63.0 °F 44.1 °F 50% 30.22 in 10.0 mi SE 24.2 mph 33.4 mph 0.00 in   Overcast
1:53 PM 63.0 °F 45.0 °F 52% 30.18 in 10.0 mi SE 20.7 mph 31.1 mph N/A   Overcast
2:53 PM 62.1 °F 45.0 °F 53% 30.16 in 10.0 mi SE 18.4 mph 26.5 mph N/A   Overcast
3:53 PM 62.1 °F 46.9 °F 58% 30.15 in 10.0 mi SSE 19.6 mph 25.3 mph N/A   Mostly Cloudy
4:53 PM 59.0 °F 48.9 °F 69% 30.14 in 10.0 mi SE 12.7 mph 23.0 mph 0.00 in Rain Light Rain
5:53 PM 57.9 °F 50.0 °F 75% 30.12 in 10.0 mi SE 12.7 mph - 0.00 in   Overcast
6:53 PM 59.0 °F 50.0 °F 72% 30.11 in 10.0 mi SE 15.0 mph 20.7 mph 0.00 in Rain Light Rain
7:53 PM 60.1 °F 51.1 °F 72% 30.11 in 10.0 mi SE 13.8 mph 21.9 mph 0.00 in   Overcast
8:53 PM 61.0 °F 52.0 °F 72% 30.10 in 10.0 mi SE 12.7 mph 20.7 mph N/A   Overcast
9:21 PM 59.0 °F 53.6 °F 82% 30.08 in 10.0 mi SSE 13.8 mph 21.9 mph 0.00 in Rain Light Rain
9:53 PM 60.1 °F 54.0 °F 80% 30.08 in 10.0 mi SE 15.0 mph 23.0 mph 0.00 in   Overcast
10:02 PM 60.8 °F 53.6 °F 77% 30.07 in 10.0 mi SSE 17.3 mph 24.2 mph N/A   Overcast
10:17 PM 60.8 °F 53.6 °F 77% 30.06 in 10.0 mi SSE 15.0 mph 23.0 mph N/A   Overcast
11:21 PM 62.6 °F 55.4 °F 77% 30.03 in 10.0 mi SSE 19.6 mph 26.5 mph N/A   Overcast
11:53 PM 64.0 °F 55.0 °F 73% 30.02 in 10.0 mi SSE 17.3 mph 28.8 mph N/A   Overcast